Weather in Novo-Kuskovo

Russia / Tomsk District     57°03′14″N   86°03′41″E
temp.,
°C
wind,
m/s
gust,
m/s
humid.,
%
clouds,
%
prec.,
mm/h
press.,
hPa
HPBL,
m
21 april, wed
wed2101:00−6sw3689100 0.0 1022216
04:00−7s3791100 0.0 1021216
07:00−6s3796100 0.3 1022392
10:00−3sse4689100 0.4 1022705
13:00−2sse4485100 0.9 1023868
16:00−1ese3378100 0.4 1025832
19:00−1ene248397 0.5 1027216
22:00−7nne229210 0.0 103118
22 april, thu
thu2201:00−8nne35945 0.0 103365
04:00−8n35945 0.0 103582
07:00−8n36925 0.0 1039110
10:00−2n468377 0.0 1040437
13:000nne468796 0.2 1041815
16:00+1nne4685100 0.2 1042725
19:00+1nne358250 0.4 1044299
22:00−3n22945 0.0 104629
23 april, fri
fri2301:00−4n24945 0.0 104775
04:00−5nne23945 0.0 104761
07:00−4nne24925 0.0 1048110
10:000nne23835 0.0 1048383
13:00+3nne346578 0.0 10471199
16:00+4nne445980 0.0 10451188
19:00+3nne46725 0.0 1044284
22:00−1ne36865 0.0 104497
24 april, sat
sat2401:00−2nne23885 0.0 104359
04:00−2nne35895 0.0 1042108
07:00−2nne378884 0.0 1040190
10:00+2nne4670100 0.0 1038605
13:00+5nne4562100 0.0 10361046
16:00+6nne4661100 0.0 10341308
19:00+4n367796 0.0 1033187
22:00+1nne3388100 0.0 103343
25 april, sun
sun2501:000n229177 0.0 103236
04:000nnw2393100 0.0 103254
07:00+1nnw248583 0.0 103293
10:00+3nnw237795 0.0 1032245
13:00+7nw235679 0.0 10311424
16:00+8wnw3355100 0.1 10301505
19:00+6wnw2469100 0.1 1030137
22:00+4wnw348199 0.0 103097